Regional Weather Roundup
Issued by NWS Charleston, SC

Current Version | Previous Version | Graphics & Text | Print | Product List | Glossary On
Versions: 1 2 3 4 5 6 7 8 9 10 11 12 13 14 15 16 17 18 19 20 21 22 23 24 25 26 27 28 29 30 31 32 33 34 35 36 37 38 39 40 41 42 43 44 45 46 47 48 49 50
000 ASUS42 KCHS 012325 RWRCHS REGIONAL WEATHER ROUNDUP NATIONAL WEATHER SERVICE CHARLESTON SC 700 PM EDT WED OCT 01 2014 NOTE: "FAIR" INDICATES FEW OR NO CLOUDS BELOW 12,000 FEET WITH NO SIGNIFICANT WEATHER AND/OR OBSTRUCTIONS TO VISIBILITY. NOT ALL STATIONS ARE QUALITY CONTROLLED BY THE NATIONAL WEATHER SERVICE. USE DATA WITH CAUTION...ESPECIALLY DEWPOINT OBSERVATIONS. SCZ027-030-031-034>040-042>050-020000- ...SOUTH CAROLINA... CITY SKY/WX TMP DP RH WIND PRES REMARKS N CHARLESTON PTCLDY 77 62 59 SE6 29.99R WATERFRONT PRK N/A 77 N/A N/A E7 N/A FORT JOHNSON NOT AVBL MOUNT PLEASANT FAIR 70 66 88 SE3 29.99S JOHNS ISLAND CLEAR 73 72 94 CALM 30.00R PINOPOLIS N/A 90 66 45 CALM 29.90S HX 92 MONCKS CORNER FAIR 77 72 83 CALM 29.98S SUMMERVILLE FAIR 77 70 78 SE3 29.99R BEAUFORT MCAS PTCLDY 78 69 73 CALM 29.99R BEAUFORT ARPT FAIR 73 68 83 CALM 29.99R HILTON HEAD IS CLEAR 75 68 78 CALM 30.00R GEORGETOWN NOT AVBL WALTERBORO CLEAR 75 66 73 SE5 29.99R ORANGEBURG CLEAR 78 62 57 SE5 29.98R BARNWELL FAIR 79 63 57 S3 29.98R AIKEN FAIR 75 64 69 SE3 30.02R MANNING FAIR 73 73 100 CALM 29.99R KINGSTREE NOT AVBL COLUMBIA PTCLDY 81 60 48 SE6 29.96R SUMTER MOCLDY 78 64 61 S3 29.97R FLORENCE CLEAR 78 67 68 CALM 29.98R MYRTLE BEACH PTCLDY 75 64 69 S8 29.98S N MYRTLE BEACH CLEAR 75 66 73 S5 29.98R $$ GAZ063-065-086>088-099>101-113>116-118-119-134-136>141-150-020000- ...GEORGIA... CITY SKY/WX TMP DP RH WIND PRES REMARKS SAVANNAH ARPT PTCLDY 79 63 57 SE7 29.98R HUNTER AAF CLEAR 76 66 69 E6 29.96S FORT STEWART CLEAR 76 65 67 CALM 29.97R STATESBORO NOT AVBL SYLVANIA CLEAR 76 71 83 CALM 29.99R CLAXTON FAIR 75 70 83 CALM 29.97S THOMSON CLEAR 75 73 93 CALM 30.03R AUGUSTA-BUSH CLEAR 76 63 64 SE6 29.96R AUGUSTA-DANIEL CLEAR 82 60 47 SE5 29.98R SWAINSBORO FAIR 79 70 73 CALM 29.98S VIDALIA PTCLDY 79 68 69 CALM 29.98R ALMA CLEAR 79 67 66 SE3 29.97R WAYCROSS CLOUDY 80 74 83 CALM 29.97S JESUP FAIR 77 68 73 CALM 29.99R BRUNSWICK CLOUDY 75 68 78 NE3 29.99R SAINT SIMONS CLOUDY 76 66 71 NE8 29.98R $$ SCZ027-028-034-036>038-045-046-048>050-GAZ119-141-020000- ...LAKE AND SUPPLEMENTAL COASTAL OBSERVATIONS... STATION/POSITION TIME TEMP WIND PRES WAVE SWELL AIR SEA DIR/SP/G HT/PER HT/PER/DIR (UTC) (F) (DEG/KT/KT) (MB) (FT/S) (FT/S/D) UPR LAKE MARION NOT AVBL WINYAH BAY 2300 75 160/ 4 1015.0S LAKE MURRAY 2200 90 CALM 1014.2R ACE BASIN NERRS 2300 75 140/ 1 1016.0S FORT PULASKI 2300 76 110/ 5/ 7 1015.5F SAPELO ISLAND NOT AVBL $$ ANZ835-935-AMZ111-154-330-350-352-354-374-450-454-472-020000- ...C-MAN AND BUOY OBSERVATIONS... STATION/POSITION TIME TEMP WIND PRES WAVE SWELL AIR SEA DIR/SP/G HT/PER HT/PER/DIR (UTC) (F) (DEG/KT/KT) (MB) (FT/S) (FT/S/D) FOLLY BEACH CMAN 2300 76 90/ 8/ 8 1015.9R BUOY 41004 2300 76 81 30/ 8/ 10 1015.0R 3/ 6 2/ 6 BUOY 41008 2300 77 79 60/ 12/ 12 1015.0R 2/ 7 2/ 90/ 7 5E ST. MARYS GA NOT AVBL FRYING PAN BUOY NOT AVBL BUOY 41025 2300 71 360/ 17/ 19 1014.8R 2/ 7 2/ 70/ 7 CAPE LOOKOUT NC 2300 74 50/ 12/ 13 1014.9R BUOY 41002 2243 80 81 40/ 10/ 14 1013.1R 4/ 6 3/ 10/ 6 BUOY 41010 2300 80 85 20/ 10/ 12 1013.2F 3/ 7 3/ 20/ 7 BUOY 41012 NOT AVBL ST AUGUSTINE FL 2300 79 30/ 13/ 14 1014.7R CAPERS NEARSHORE 2200 76 110/ 8/ 10 N/A FRIPP NEARSHORE NOT AVBL $$

USA.gov is the U.S. government's official web portal to all federal, state and local government web resources and services.